Humidity-temperature Sensor

Selected Measurement Type: Air Temperature

 
Air Temperature [°C]     6 entries per hour
Showing data from 3/5/2016 (00:00:00 Z) to 3/4/2016 (00:01:00 Z)
Previous Next [ Day | 3-Days | 7-Days ]
First Last
Prev [ Day | 3-Days | 7-Days ] Next
First Last

Start Time:     :
End Time:     :     
Time (in GMT) :00 :50 :40 :30 :20 :10
Previous Next [ Day | 3-Days | 7-Days ]
First Last
Prev [ Day | 3-Days | 7-Days ] Next
First Last


123 => good data
MM => data is determined as missing
-- => data not received/configured
Back to Top Back to Top
3/5/2016 00:00 to 23:10 26.35 26.32 26.32 26.44 26.49 26.69
3/4/2016 23:00 to 22:10 26.52 26.51 26.49 26.50 26.47 26.41
3/4/2016 22:00 to 21:10 26.48 26.50 26.47 26.33 26.42 26.49
3/4/2016 21:00 to 20:10 26.53 26.46 26.14 26.43 26.23 26.12
3/4/2016 20:00 to 19:10 26.33 26.15 26.12 26.25 26.06 25.99
3/4/2016 19:00 to 18:10 25.96 25.72 25.94 25.87 26.58 26.71
3/4/2016 18:00 to 17:10 26.63 26.66 26.19 26.23 26.26 26.60
3/4/2016 17:00 to 16:10 26.84 26.86 27.43 27.82 27.86 27.86
3/4/2016 16:00 to 15:10 27.99 28.05 28.22 27.87 27.71 27.68
3/4/2016 15:00 to 14:10 27.65 27.61 27.51 27.53 27.55 27.59
3/4/2016 14:00 to 13:10 27.52 27.47 27.49 27.47 27.33 27.38
3/4/2016 13:00 to 12:10 27.36 27.35 27.32 27.24 27.45 27.35
3/4/2016 12:00 to 11:10 27.35 27.36 27.35 27.35 27.33 27.37
3/4/2016 11:00 to 10:10 27.35 27.37 27.44 27.34 27.48 27.43
3/4/2016 10:00 to 9:10 27.40 27.42 27.33 27.51 27.42 27.47
3/4/2016 09:00 to 8:10 27.48 27.45 27.47 27.42 27.49 27.48
3/4/2016 08:00 to 7:10 27.50 27.44 27.46 27.48 27.38 27.39
3/4/2016 07:00 to 6:10 27.41 27.50 27.47 27.47 27.50 27.42
3/4/2016 06:00 to 5:10 27.47 27.44 27.38 27.54 27.52 27.68
3/4/2016 05:00 to 4:10 27.64 27.63 27.65 27.50 27.58 27.50
3/4/2016 04:00 to 3:10 27.52 27.61 27.50 27.51 27.48 27.56
3/4/2016 03:00 to 2:10 27.47 27.38 27.23 27.41 27.21 27.27
3/4/2016 02:00 to 1:10 27.19 27.25 27.22 27.16 27.29 27.19
3/4/2016 01:00 to 0:10 27.18 27.12 27.11 27.16 26.95 26.81